This is the latest recevied weather packets stored in our database for station/object IK6ZNK-3. If no packets are shown the sender has not sent any weather packets the latest 10 day(s).
| Time | Temp. | Humidity | Pressure | Rain* | Wind** | Luminosity | Snow |
|---|---|---|---|---|---|---|---|
| 1777707612 | 14.44° C | 59% | 1016.6 hPa | 0 mm | - | - | - |
| 1777707011 | 14.44° C | 58% | 1016.5 hPa | 0 mm | - | - | - |
| 1777706410 | 14.44° C | 62% | 1016.6 hPa | 0 mm | - | - | - |
| 1777705809 | 13.89° C | 64% | 1016.6 hPa | 0 mm | - | - | - |
| 1777705209 | 13.89° C | 64% | 1016.6 hPa | 0 mm | - | - | - |
| 1777704607 | 13.89° C | 66% | 1016.7 hPa | 0 mm | - | - | - |
| 1777704007 | 12.78° C | 68% | 1016.5 hPa | 0 mm | - | - | - |
| 1777703407 | 12.78° C | 68% | 1016.4 hPa | 0 mm | - | - | - |
| 1777702806 | 12.22° C | 68% | 1016.5 hPa | 0 mm | - | - | - |
| 1777702207 | 12.22° C | 68% | 1016.6 hPa | 0 mm | - | - | - |
| 1777701607 | 12.22° C | 67% | 1016.7 hPa | 0 mm | - | - | - |
| 1777701007 | 12.22° C | 67% | 1016.6 hPa | 0 mm | - | - | - |
| 1777700407 | 11.67° C | 68% | 1016.4 hPa | 0 mm | - | - | - |
| 1777699807 | 11.67° C | 68% | 1016.5 hPa | 0 mm | - | - | - |
| 1777699206 | 11.11° C | 69% | 1016.5 hPa | 0 mm | - | - | - |
| 1777698606 | 11.11° C | 69% | 1016.7 hPa | 0 mm | - | - | - |
| 1777698007 | 11.11° C | 69% | 1016.5 hPa | 0 mm | - | - | - |
| 1777697407 | 10.56° C | 70% | 1016.4 hPa | 0 mm | - | - | - |
| 1777696807 | 10° C | 71% | 1016.4 hPa | 0 mm | - | - | - |
| 1777696207 | 10° C | 71% | 1016.1 hPa | 0 mm | - | - | - |
| 1777695606 | 10° C | 71% | 1016.3 hPa | 0 mm | - | - | - |
| 1777695006 | 10° C | 71% | 1016.2 hPa | 0 mm | - | - | - |
| 1777694407 | 10° C | 69% | 1016.2 hPa | 0 mm | - | - | - |
| 1777693807 | 10° C | 69% | 1016.2 hPa | 0 mm | - | - | - |
| 1777693207 | 10° C | 69% | 1016.2 hPa | 0 mm | - | - | - |
* Rain latest hour (hover to see other rain measurements)
** Current wind speed in m/s (hover to see current wind gust speed)